Location: Tucson
(32.2217°N, 110.9265°W)
Time: 00:35:13
(UTC-07:00)

Tiangong 2 - Visible Passes

Search period start: 25 November 2017 00:00
Search period end: 05 December 2017 00:00
Orbit: 386 x 392 km, 42.8° (Epoch: 24 November)

Date Brightness Start Highest point End Pass type
(mag) Time Alt. Az. Time Alt. Az. Time Alt. Az.
25 Nov 4.2 05:12:28 10° SSE 05:13:52 12° SE 05:15:17 10° ESE visible
26 Nov 1.7 05:49:40 15° SW 05:52:11 56° SE 05:55:19 10° ENE visible
27 Nov 3.7 04:55:11 21° ESE 04:55:11 21° ESE 04:56:48 10° E visible
27 Nov 1.8 06:27:50 10° W 06:30:48 35° NNW 06:33:47 10° NE visible
28 Nov 1.2 05:32:47 60° N 05:32:47 60° N 05:35:41 10° NE visible
29 Nov 2.6 06:10:06 18° NW 06:11:16 22° NNW 06:13:51 10° NE visible
30 Nov 3.6 05:14:55 16° NE 05:14:55 16° NE 05:15:48 10° NE visible
01 Dec 3.1 05:51:56 16° N 05:51:56 16° N 05:53:51 10° NNE visible
02 Dec 3.5 06:29:28 10° NNW 06:30:53 12° N 06:32:19 10° NNE visible
03 Dec 3.8 05:33:19 12° NNE 05:33:19 12° NNE 05:33:54 10° NNE visible
04 Dec 3.5 06:10:04 11° NNW 06:11:24 13° N 06:12:59 10° NE visible
